Wind_Speed
16 15 15 15 14 13 14 13 13 12 12 12 11 11 11 10 10 10 9 9 9 9 9 8 8 7 7 6 7 7 7 7 7 6 6 7 8 9 9 9 9 9
17 16 16 16 15 14 14 13 13 13 13 12 11 11 11 11 10 10 10 10 10 10 10 10 9 9 9 8 7 8 8 8 8 8 8 8 8 9 9 9 9 9
18 17 17 17 16 16 15 14 13 13 13 14 13 11 11 11 11 11 11 11 11 11 11 11 11 10 10 9 8 9 9 9 9 9 8 8 8 9 10 10 10 9
19 18 18 17 17 16 16 15 15 14 14 14 14 13 12 11 12 12 12 12 11 11 11 11 11 12 11 11 10 10 10 10 10 9 8 8 9 10 10 10 10 10
19 19 18 18 17 16 16 17 17 16 15 15 15 15 14 13 12 12 12 13 13 12 12 12 12 12 12 12 12 11 11 11 11 10 10 10 10 11 11 11 10 10
19 19 18 17 17 17 17 17 17 17 16 16 15 15 15 15 14 14 13 13 14 14 13 14 14 13 13 13 13 12 12 12 11 11 11 11 11 12 11 11 10 10
18 19 19 18 18 17 17 17 17 17 17 16 16 16 16 16 16 16 15 15 15 14 14 14 14 14 14 13 13 13 12 12 11 10 11 12 13 12 12 11 11 11
17 19 19 19 19 19 18 18 17 17 17 16 16 17 16 16 17 17 16 16 16 15 15 14 14 14 14 14 14 13 13 13 13 12 13 13 14 13 13 12 12 12
16 17 18 19 19 19 20 19 18 17 17 17 17 16 16 17 17 17 17 17 17 16 16 15 15 15 15 15 14 14 14 13 13 13 14 13 14 14 14 14 13 13
17 17 17 19 19 20 20 20 19 18 17 18 17 16 16 16 16 17 17 17 17 17 17 16 16 16 16 16 15 15 15 15 14 14 14 14 14 15 14 14 14 14
18 18 18 18 18 19 19 19 19 19 19 18 18 17 17 16 17 17 17 17 18 18 18 18 17 17 17 16 16 15 15 15 15 15 15 15 15 15 15 14 15 15
18 18 18 18 19 19 19 19 19 19 19 18 18 17 17 17 17 17 17 18 18 18 19 19 18 18 17 17 17 16 16 16 15 15 15 15 15 15 16 16 16 16
20 20 18 18 18 18 18 18 18 18 19 18 17 17 17 17 17 17 17 17 17 18 19 19 19 18 18 18 17 17 16 16 16 16 15 15 15 15 16 16 16 17
17 18 19 18 16 16 16 17 17 17 16 15 14 14 15 16 16 18 17 16 17 20 21 20 19 19 18 18 18 18 17 17 16 16 16 15 14 15 16 16 16 17
18 17 17 18 16 15 14 14 16 13 10 11 13 13 13 13 13 16 18 18 19 20 20 19 19 19 19 19 18 17 17 17 17 16 15 15 15 16 17 16 16 17
17 17 20 21 16 14 12 12 15 12 8 10 14 14 16 17 15 16 18 19 19 18 18 18 18 19 19 19 19 18 16 16 16 14 14 15 14 14 15 15 15 17
15 16 20 22 17 14 13 13 15 14 12 14 16 16 17 19 18 18 18 18 18 19 19 19 19 19 18 17 19 20 18 15 14 12 13 15 15 13 13 14 15 17
15 17 19 21 20 17 15 14 15 14 15 18 18 17 17 17 18 19 20 18 16 16 16 15 13 14 15 15 15 17 18 17 15 13 13 15 15 13 12 13 16 17
14 16 17 19 21 21 18 14 13 13 15 16 17 16 15 14 15 17 20 20 19 18 17 15 12 10 12 14 15 17 18 17 17 17 15 14 14 13 12 12 14 14
13 14 15 17 19 20 19 15 12 11 12 13 16 17 17 17 16 16 18 19 19 19 16 10 8 8 9 11 14 17 18 18 17 17 16 15 13 12 12 13 13 14
10 12 15 18 20 20 20 18 14 11 11 12 13 15 16 16 16 17 19 18 15 14 12 8 5 7 7 7 10 14 16 17 16 15 16 16 14 13 14 17 19 20
4 5 10 15 18 19 18 17 15 11 11 13 14 13 12 13 15 18 19 17 15 14 12 9 7 7 6 6 6 9 12 13 12 13 14 15 15 15 15 18 21 21
6 4 1 3 7 9 9 11 12 11 12 15 17 15 13 13 16 19 17 13 12 11 10 9 6 4 6 6 6 7 9 10 10 11 11 12 14 14 13 14 16 16
11 10 8 7 6 6 7 8 9 10 12 15 18 21 19 15 14 16 15 12 10 8 8 8 6 4 5 6 6 7 7 7 8 9 8 8 10 11 10 11 12 13
13 12 11 11 10 9 8 8 7 7 8 9 13 19 21 18 13 11 10 9 8 7 6 6 6 6 6 6 5 6 6 6 7 8 7 8 10 10 10 9 9 10
15 14 13 12 10 9 9 9 9 7 6 5 4 4 8 12 11 8 8 7 7 7 6 6 7 6 4 3 3 2 4 5 6 7 8 8 9 10 10 9 7 6
Wind_Direction
196 195 197 199 199 202 202 199 200 202 206 209 208 208 211 211 211 216 216 210 210 215 217 218 218 220 222 223 226 231 238 245 248 247 248 254 260 265 267 270 272 278
199 197 197 199 200 205 208 204 202 204 207 212 214 209 206 208 208 211 217 215 213 215 215 217 221 220 223 225 223 230 235 238 246 247 246 249 254 261 267 268 269 272
201 201 200 201 201 204 209 208 205 206 207 208 214 215 208 206 208 208 212 215 218 220 216 216 221 219 222 224 221 228 234 235 242 248 249 249 253 261 266 269 270 267
203 204 203 206 206 204 206 209 208 208 210 208 208 212 213 211 210 208 209 213 218 221 218 216 220 219 220 222 222 227 232 234 239 244 249 251 252 260 264 264 268 270
205 207 208 209 210 207 206 209 210 209 211 212 209 209 213 217 217 213 209 210 214 219 220 217 217 219 220 218 221 226 230 235 236 232 239 251 252 254 260 259 260 264
203 206 210 212 212 211 209 210 213 213 213 214 214 212 211 213 217 219 215 212 214 217 220 219 217 218 221 219 220 225 229 237 237 225 226 241 250 251 255 259 260 262
202 205 207 211 213 214 214 214 214 215 217 216 216 217 217 215 214 218 220 218 219 221 221 222 220 219 222 222 222 224 228 235 237 228 226 235 245 252 256 259 261 261
204 205 206 210 213 214 215 216 215 215 216 217 217 217 217 219 217 217 220 221 223 224 225 225 221 219 224 226 224 223 225 230 232 230 232 239 247 253 255 256 258 258
210 209 209 210 213 216 216 216 216 215 215 216 219 219 217 218 220 220 219 220 223 225 225 228 225 221 224 227 227 227 227 231 234 232 232 238 246 250 251 252 253 254
214 215 216 214 214 217 219 219 218 216 217 218 219 220 219 217 218 222 222 219 221 224 223 225 226 224 225 228 229 229 231 234 236 236 236 237 241 246 249 251 251 251
219 218 218 220 221 220 219 220 220 219 218 219 220 222 223 221 218 219 222 221 220 223 224 224 225 225 227 231 233 233 233 234 236 237 240 241 243 247 249 250 250 251
226 226 223 220 222 224 224 222 221 222 221 219 220 221 223 226 224 220 221 222 222 224 224 223 224 227 229 231 235 237 235 236 238 239 240 243 246 248 249 250 250 250
225 228 230 228 225 224 226 225 223 224 225 224 223 223 224 227 229 229 225 221 223 229 231 227 223 225 229 231 233 237 238 239 239 241 243 246 250 252 252 252 252 253
246 238 232 232 232 228 226 227 226 224 223 224 223 223 226 229 233 236 231 222 224 230 232 229 226 225 226 228 229 233 237 238 239 241 244 247 252 256 258 257 257 258
266 273 262 246 235 230 229 224 224 227 224 222 223 222 224 229 239 246 242 232 229 232 232 230 230 229 226 226 227 230 234 236 238 240 243 249 253 254 258 259 260 262
259 275 278 267 243 222 224 224 224 232 235 230 231 229 226 226 232 246 254 247 237 236 236 234 235 236 233 227 225 228 232 236 238 239 243 251 255 256 258 259 262 266
262 260 267 273 262 231 223 229 229 230 232 237 237 231 230 233 232 235 247 253 249 243 240 236 236 239 239 234 229 228 231 235 239 239 237 241 250 259 262 264 269 274
270 259 256 266 269 254 237 229 228 226 228 236 236 229 228 236 239 234 234 243 252 254 257 260 253 240 236 242 241 235 236 242 248 249 241 237 243 254 261 267 271 273
273 265 259 259 262 261 251 234 224 224 227 232 234 232 226 227 238 242 240 242 244 246 259 285 297 274 248 247 245 237 240 251 258 261 259 252 249 250 253 263 267 263
277 269 266 262 258 260 259 247 229 221 225 230 234 236 233 231 239 245 245 247 246 241 244 267 295 287 265 252 243 235 238 247 254 261 269 274 272 260 251 255 259 261
291 273 266 263 260 259 256 252 245 233 227 231 233 233 234 237 240 240 239 240 239 236 236 237 251 262 256 247 244 239 237 240 246 255 266 272 272 266 263 263 262 264
323 269 256 260 265 263 254 248 248 240 231 236 239 235 230 231 233 232 233 231 230 235 244 245 247 253 247 239 243 243 242 244 249 254 258 261 261 261 267 268 266 266
65 77 82 281 285 286 277 266 262 254 245 246 247 242 234 228 229 228 225 222 223 231 238 236 234 246 247 245 252 255 254 256 257 253 250 252 255 256 259 261 263 265
65 65 58 46 24 359 345 326 305 284 268 258 251 244 236 227 224 222 216 214 219 225 230 233 234 233 231 232 242 250 255 261 263 260 254 251 250 250 250 254 258 260
57 55 51 47 37 25 16 5 350 328 305 282 261 244 228 211 203 204 205 205 213 221 223 217 212 215 218 218 229 244 256 267 273 276 272 267 264 261 259 258 260 269
54 53 52 51 43 35 32 29 24 14 353 333 312 265 206 184 178 188 200 192 180 180 175 165 176 196 210 212 218 244 265 274 289 296 291 284 282 280 279 280 278 283
Height
824 826 827 828 830 831 831 832 833 834 835 836 837 838 839 840 841 841 842 843 844 845 846 846 847 847 847 848 848 848 848 848 848 848 848 848 847 847 846 845 845 845
822 824 825 826 828 829 829 830 832 833 834 835 835 836 837 838 839 840 841 841 842 843 844 845 845 846 846 847 847 847 847 847 847 847 847 847 847 846 845 844 844 844
821 822 823 824 825 827 828 829 830 831 832 833 834 834 835 836 837 839 839 840 841 842 842 843 844 845 845 846 846 846 846 846 846 846 846 846 846 845 844 844 843 843
819 820 821 822 823 824 826 827 828 829 830 831 832 833 834 835 835 837 838 839 840 840 841 842 842 843 844 844 845 845 845 845 845 845 845 845 845 844 844 843 843 842
817 818 819 820 821 822 823 825 825 827 828 829 830 831 832 833 834 834 836 837 838 838 839 840 840 841 842 842 843 843 843 843 843 844 844 844 844 843 843 842 841 841
815 816 817 818 819 820 821 822 823 824 825 826 828 829 830 831 832 833 834 834 835 836 837 837 838 839 840 840 841 841 842 842 841 841 842 842 842 842 841 841 840 840
812 813 815 816 817 818 819 820 821 822 823 824 825 827 828 829 830 831 832 832 833 834 834 835 836 837 838 838 839 840 840 840 840 840 840 841 841 841 840 839 839 839
809 811 813 814 815 816 816 817 818 819 821 822 823 824 825 826 827 828 829 830 831 831 832 833 834 835 836 836 837 837 838 838 838 839 839 839 839 839 838 838 838 838
806 809 810 811 812 813 814 815 816 817 818 819 820 821 822 824 825 826 827 828 829 830 830 831 832 833 834 834 835 835 836 836 836 836 837 837 837 837 837 837 836 836
804 806 807 808 809 810 811 812 813 815 816 817 818 819 820 821 823 824 825 826 827 828 828 829 830 830 831 832 832 833 834 834 834 834 835 835 835 835 835 834 834 834
801 803 804 806 807 808 808 810 811 812 813 815 816 817 817 818 820 821 822 823 824 825 826 827 827 828 829 830 830 831 831 832 832 832 833 833 833 833 832 832 832 832
801 801 801 803 805 806 807 808 809 809 810 812 813 814 816 816 817 818 819 821 822 823 823 824 825 826 827 827 828 828 828 829 829 830 830 830 830 830 830 830 830 830
800 800 800 801 803 804 805 806 807 808 808 809 811 812 814 815 815 816 817 818 819 820 821 822 822 823 824 825 826 826 826 827 827 827 828 828 828 828 828 828 828 828
801 801 800 801 802 803 804 805 805 806 806 807 808 810 811 812 813 814 815 815 817 818 819 819 820 820 821 822 823 824 824 824 825 825 825 825 826 826 826 826 826 826
803 803 802 801 802 802 803 804 804 804 805 805 807 807 808 809 811 812 813 814 815 816 816 817 817 817 818 819 820 821 822 822 822 823 823 824 824 825 825 825 824 825
803 805 805 805 803 802 803 803 803 804 804 805 805 806 807 808 809 810 811 812 812 812 813 814 815 815 816 817 818 819 820 820 820 821 822 823 823 823 824 824 824 824
803 804 806 807 805 803 803 803 804 804 804 804 804 805 806 807 807 808 809 810 811 811 811 811 813 814 814 815 817 818 819 819 820 820 820 821 822 822 822 823 823 823
801 802 803 805 806 805 803 803 803 803 803 803 803 804 805 806 806 807 806 808 809 809 810 811 813 812 812 814 817 819 820 820 820 820 820 820 820 821 822 822 821 822
799 799 800 803 805 806 803 801 802 802 801 801 802 803 804 804 805 806 805 806 807 807 808 811 813 812 812 814 816 817 819 820 820 819 819 818 819 819 820 821 820 820
796 797 798 800 802 804 803 802 801 801 800 800 800 801 802 802 803 804 804 805 806 807 808 810 812 813 813 813 814 815 817 818 818 818 818 818 819 819 819 819 819 818
796 797 798 799 800 802 803 802 801 799 799 798 799 799 800 800 801 802 802 804 805 806 808 809 810 811 813 813 813 815 816 817 816 816 817 817 818 818 818 818 817 816
798 800 800 800 801 801 801 801 800 798 798 797 797 798 798 798 799 799 800 802 804 806 807 809 808 808 810 812 813 815 815 815 816 816 815 815 815 816 816 816 816 815
800 800 800 800 800 800 800 800 798 797 796 796 796 796 797 797 797 797 798 800 802 804 806 808 808 807 808 809 811 813 814 814 815 815 814 813 813 814 814 814 813 813
801 800 800 800 799 799 799 798 798 797 796 795 795 795 795 796 796 796 798 799 801 803 805 806 807 806 806 807 808 811 812 813 814 813 813 812 812 812 812 811 810 810
802 801 801 800 800 800 799 798 798 797 796 795 795 793 792 793 794 796 798 799 801 803 804 805 806 806 807 806 805 807 810 812 812 812 812 812 811 811 810 808 808 808
804 804 804 803 803 802 801 800 799 798 797 797 796 794 792 791 792 796 799 799 800 801 802 804 806 806 807 805 804 806 808 810 812 811 811 811 810 810 809 807 806 806